Flag for United Kingdom Weather past 2 weeks in Leicester, England, United Kingdom

Now
34 °F

Passing clouds.


Feels Like: 28 °F
Forecast: 33 / 38 °F
Wind: 7 mph from Northwest

Location: East Midlands

Current Time: Dec 27, 2014 at 9:30:22 AM

Latest Report: Dec 27, 2014 at 8:50 AM


Visibility: N/A

Pressure: 29.80 "Hg

Humidity: 87%

Dew point: 30 °F

Location of LeicesterLocation

Historic Weather in Leicester — Graph

°F

Leicester temperature yesterday

Maximum temperature yesterday: 39 °F (at 11:50 AM)
Minimum temperature yesterday: 32 °F (at 5:50 PM)
Average temperature yesterday: 35 °F

Past Weeks' High & Low Weather Summary

 TemperatureHumidityPressure
High57 °F (Dec 18, 1:20 PM)100% (Dec 12, 8:50 AM)30.48 "Hg (Dec 12, 8:50 AM)
Low30 °F (Dec 13, 6:50 AM)61% (Dec 24, 12:20 PM)29.24 "Hg (Dec 12, 8:20 AM)
Average44 °F85%29.90 "Hg
* Reported Dec 12 8:20 AM — Dec 27 8:20 AM, Leicester, Weather by CustomWeather, © 2014

Note: Actual official high and low records may vary slightly from our data, if they occured in-between our weather recording intervals... More about our weather records

Advertising

Leicester weather history for previous 24 hours

 ConditionsComfort  
Time TempWeatherWind HumidityBarometerVisibility
8:20 AM
Dec 27
34 °FSunny.8 mph87%29.80 "Hg10 mi
7:50 AM34 °FPassing clouds.8 mph87%29.80 "HgN/A
7:20 AM34 °FPassing clouds.13 mph87%29.80 "HgN/A
6:50 AM34 °FPassing clouds.12 mph93%29.80 "HgN/A
6:20 AM34 °FPassing clouds.10 mph93%29.80 "HgN/A
5:50 AM36 °FPassing clouds.10 mph93%29.80 "HgN/A
5:20 AM36 °FPassing clouds.18 mph93%29.77 "HgN/A
4:50 AM36 °FPassing clouds.20 mph93%29.77 "HgN/A
4:20 AM36 °FPassing clouds.18 mph93%29.77 "HgN/A
3:20 AM36 °FPassing clouds.20 mph93%29.77 "HgN/A
2:50 AM34 °FPassing clouds.21 mph100%29.74 "Hg5 mi
2:20 AM34 °FLight snow. Passing clouds.16 mph100%29.74 "Hg5 mi
1:50 AM34 °FLight snow. Passing clouds.18 mph100%29.71 "Hg4 mi
1:20 AM32 °FLight snow. Partly cloudy.18 mph100%29.71 "Hg4 mi
12:50 AM32 °FLight snow. Passing clouds.17 mph100%29.68 "Hg2 mi
12:20 AM32 °FLight snow. Passing clouds.16 mph100%29.68 "Hg1 mi
11:50 PM
Dec 26
32 °FSnow. Passing clouds.15 mph100%29.65 "Hg1 mi
11:20 PM32 °FSnow. Passing clouds.13 mph100%29.65 "Hg1 mi
10:50 PM32 °FLight snow. Partly cloudy.14 mph100%29.62 "Hg1 mi
10:20 PM32 °FLight snow. Passing clouds.15 mph100%29.62 "Hg1 mi
9:50 PM32 °FSnow. Passing clouds.12 mph100%29.65 "Hg1 mi
9:20 PM32 °FSnow. Passing clouds.12 mph100%29.68 "Hg1 mi
8:50 PM32 °FLight snow. Partly cloudy.10 mph100%29.68 "Hg2 mi
8:20 PM32 °FSnow. Low clouds.15 mph100%29.71 "Hg1 mi
7:50 PM32 °FSnow. Low clouds.15 mph100%29.74 "Hg1 mi
7:20 PM32 °FSnow. Low clouds.14 mph100%29.80 "Hg1 mi
6:50 PM32 °FSnow. Passing clouds.14 mph100%29.83 "Hg1 mi
6:20 PM32 °FSnow. Passing clouds.14 mph100%29.86 "Hg1 mi
5:50 PM32 °FSnow. Passing clouds.10 mph100%29.92 "Hg1 mi
5:20 PM34 °FRain. Passing clouds.14 mph100%29.95 "Hg4 mi
4:20 PM37 °FLight rain. Mostly cloudy.13 mph93%30.04 "Hg6 mi
3:20 PM39 °FLight rain. Scattered clouds.16 mph87%30.09 "HgN/A
2:50 PM39 °FPassing clouds.9 mph87%30.12 "HgN/A
2:20 PM39 °FSunny.8 mph87%30.15 "Hg10 mi
1:50 PM39 °FPassing clouds.8 mph87%30.18 "HgN/A
1:20 PM39 °FPassing clouds.8 mph87%30.18 "HgN/A
12:50 PM39 °FSunny.10 mph87%30.21 "Hg10 mi
12:20 PM39 °FSunny.9 mph87%30.24 "Hg10 mi
11:50 AM39 °FSunny.9 mph87%30.27 "Hg10 mi
11:20 AM37 °FSunny.9 mph93%30.30 "Hg10 mi
10:50 AM37 °FSunny.9 mph93%30.33 "Hg10 mi
10:20 AM36 °FSunny.9 mph93%30.33 "Hg10 mi
9:50 AM36 °FSunny.9 mph93%30.36 "Hg10 mi
9:20 AM36 °FSunny.9 mph93%30.36 "Hg10 mi
Weather by CustomWeather, © 2014

See weather overviewHow to use our weather pages